Weather History for Houston / Southwest Airport, TX

Change the Weather History Date:

Wednesday, January 1, 2014

  Actual Average (KHOU) Record (KHOU)
Temperature  
Mean Temperature 55 °F 53 °F  
Max Temperature 66 °F 63 °F 81 °F (2006)
Min Temperature 44 °F 43 °F 18 °F (1928)
Degree Days  
Heating Degree Days 10 13  
Month to date heating degree days 13  
Since 1 July heating degree days 552  
Growing Degree Days 5 (Base 50)    
Moisture  
Dew Point 50 °F    
Average Humidity 82    
Maximum Humidity 95    
Minimum Humidity 65    
Precipitation  
Precipitation 0.00 in 0.10 in 3.12 in (1950)
Month to date precipitation 0.10  
Year to date precipitation 0.10  
Sea Level Pressure  
Sea Level Pressure 30.14 in    
Wind  
Wind Speed 2 mph (SSE)    
Max Wind Speed 10 mph    
Max Gust Speed -    
Visibility 9 miles    
Events Rain    
T = Trace of Precipitation, MM = Missing Value Source: NWS Daily Summary

Daily Weather History Graph

Daily Weather History Graph

Search for Another Location

Airport:

Trip Planner

Search our weather history database for the weather conditions in past years. The results will help you decide how hot, cold, wet, or windy it might be!

Date:

Astronomy

Jan. 01, 2014 Rise Set
Actual Time 7:16 AM CST 5:34 PM CST
Civil Twilight 6:50 AM CST 6:00 PM CST
Nautical Twilight 6:20 AM CST 6:30 PM CST
Astronomical Twilight 5:51 AM CST 6:59 PM CST
Moon 7:12 AM CST (1/1) 6:14 PM CST (1/1)
Length of Visible Light 11h 10m
Length of Day
10h 17m
New Moon, 0% of the Moon is Illuminated
Jan 1
New Moon
Jan 7
First Quarter
Jan 15
Full
Jan 23
Last Quarter
Jan 30
New

Hourly Weather History & Observations

Time (CST) Temp. Windchill Dew Point Humidity Pressure Visibility Wind Dir Wind Speed Gust Speed Precip Events Conditions
12:15 AM 44.8 °F - 39.7 °F 82% 30.30 in 7.0 mi Calm Calm - N/A   Overcast
12:35 AM 45.0 °F 43.5 °F 40.1 °F 83% 30.30 in 7.0 mi ESE 3.5 mph - N/A   Overcast
12:55 AM 45.1 °F - 40.1 °F 82% 30.28 in 7.0 mi Calm Calm - N/A   Overcast
1:15 AM 45.5 °F - 40.1 °F 81% 30.27 in 7.0 mi Calm Calm - N/A   Overcast
1:35 AM 45.7 °F - 40.1 °F 81% 30.27 in 7.0 mi Calm Calm - N/A   Overcast
1:55 AM 45.9 °F - 40.3 °F 81% 30.26 in 7.0 mi Calm Calm - N/A   Overcast
2:15 AM 46.4 °F - 41.0 °F 81% 30.26 in 7.0 mi Calm Calm - N/A   Overcast
2:35 AM 46.6 °F - 41.4 °F 82% 30.24 in 7.0 mi Calm Calm - N/A   Overcast
2:55 AM 46.6 °F - 41.4 °F 82% 30.23 in 7.0 mi Calm Calm - N/A   Overcast
3:15 AM 46.6 °F - 41.4 °F 82% 30.24 in 7.0 mi Calm Calm - N/A   Overcast
3:35 AM 46.6 °F - 41.4 °F 82% 30.23 in 7.0 mi Calm Calm - N/A   Overcast
3:55 AM 46.8 °F - 41.9 °F 83% 30.22 in 7.0 mi Calm Calm - N/A   Overcast
4:15 AM 46.8 °F - 41.9 °F 83% 30.22 in 7.0 mi Calm Calm - N/A   Overcast
4:35 AM 47.1 °F - 41.9 °F 82% 30.20 in 7.0 mi Calm Calm - N/A   Overcast
4:55 AM 46.8 °F - 42.1 °F 84% 30.20 in 7.0 mi North 3.5 mph - N/A   Overcast
5:15 AM 46.6 °F - 42.1 °F 84% 30.20 in 7.0 mi Calm Calm - N/A   Overcast
5:35 AM 46.8 °F - 42.3 °F 84% 30.19 in 7.0 mi Calm Calm - N/A   Overcast
5:55 AM 46.8 °F - 41.9 °F 83% 30.19 in 7.0 mi Calm Calm - N/A   Overcast
6:15 AM 46.4 °F - 41.5 °F 83% 30.19 in 7.0 mi Calm Calm - N/A   Mostly Cloudy
6:35 AM 46.0 °F - 41.7 °F 85% 30.20 in 7.0 mi Calm Calm - N/A   Overcast
6:55 AM 46.0 °F - 42.3 °F 87% 30.19 in 7.0 mi Calm Calm - N/A   Overcast
7:15 AM 46.4 °F - 42.8 °F 87% 30.20 in 7.0 mi Calm Calm - N/A   Overcast
7:35 AM 47.5 °F - 43.0 °F 84% 30.19 in 7.0 mi Calm Calm - N/A   Overcast
7:55 AM 47.8 °F - 43.0 °F 83% 30.20 in 7.0 mi Calm Calm - N/A   Overcast
8:15 AM 48.7 °F - 43.5 °F 82% 30.21 in 7.0 mi Calm Calm - N/A   Overcast
8:35 AM 49.3 °F - 44.2 °F 83% 30.21 in 7.0 mi Calm Calm - N/A   Overcast
8:55 AM 50.9 °F - 45.1 °F 81% 30.22 in 7.0 mi Calm Calm - N/A   Overcast
9:15 AM 52.0 °F - 45.9 °F 80% 30.21 in 7.0 mi Calm Calm - N/A   Overcast
9:35 AM 53.6 °F - 47.3 °F 79% 30.21 in 7.0 mi Calm Calm - N/A   Overcast
9:55 AM 54.5 °F - 47.7 °F 78% 30.20 in 10.0 mi Calm Calm - N/A   Overcast
10:15 AM 56.3 °F - 49.1 °F 77% 30.19 in 10.0 mi Calm Calm - N/A   Overcast
10:35 AM 59.5 °F - 51.8 °F 76% 30.19 in 10.0 mi SE 3.5 mph - N/A   Mostly Cloudy
10:55 AM 62.4 °F - 53.2 °F 72% 30.17 in 10.0 mi SSE 5.8 mph - N/A   Mostly Cloudy
11:15 AM 63.5 °F - 53.6 °F 70% 30.17 in 10.0 mi SSE 9.2 mph - N/A   Mostly Cloudy
11:35 AM 63.9 °F - 53.8 °F 70% 30.16 in 10.0 mi SSE 9.2 mph - N/A   Mostly Cloudy
11:55 AM 65.1 °F - 54.3 °F 68% 30.14 in 10.0 mi South 9.2 mph - N/A   Overcast
12:15 PM 66.0 °F - 54.1 °F 65% 30.13 in 10.0 mi SSE 9.2 mph - N/A   Overcast
12:35 PM 64.9 °F - 54.5 °F 69% 30.12 in 10.0 mi SE 8.1 mph - N/A   Overcast
12:55 PM 64.6 °F - 54.5 °F 70% 30.10 in 10.0 mi North - - N/A   Overcast
1:15 PM 64.0 °F - 54.9 °F 72% 30.10 in 10.0 mi SSE 9.2 mph - N/A   Overcast
1:35 PM 64.0 °F - 55.0 °F 73% 30.09 in 10.0 mi SSW 8.1 mph - N/A   Overcast
1:55 PM 64.4 °F - 55.4 °F 73% 30.08 in 10.0 mi South 9.2 mph - N/A   Overcast
2:15 PM 64.4 °F - 55.4 °F 73% 30.07 in 10.0 mi South 10.4 mph - N/A   Overcast
2:35 PM 63.7 °F - 55.4 °F 74% 30.06 in 10.0 mi SE 5.8 mph - N/A   Overcast
2:55 PM 63.5 °F - 55.4 °F 75% 30.06 in 10.0 mi SSE 6.9 mph - N/A   Overcast
3:15 PM 63.5 °F - 55.2 °F 74% 30.06 in 10.0 mi SE 6.9 mph - N/A   Overcast
3:35 PM 63.3 °F - 55.2 °F 75% 30.05 in 10.0 mi SSE 8.1 mph - N/A   Overcast
3:55 PM 63.0 °F - 55.4 °F 76% 30.05 in 10.0 mi South 10.4 mph - N/A   Overcast
4:15 PM 62.6 °F - 55.4 °F 77% 30.06 in 10.0 mi South 9.2 mph - N/A   Overcast
4:35 PM 62.1 °F - 55.4 °F 79% 30.06 in 10.0 mi South 9.2 mph - N/A   Overcast
4:55 PM 61.7 °F - 55.8 °F 81% 30.06 in 10.0 mi SE 4.6 mph - N/A   Overcast
5:15 PM 61.5 °F - 56.3 °F 83% 30.05 in 10.0 mi SSE 4.6 mph - N/A Rain Rain
5:35 PM 61.0 °F - 56.3 °F 85% 30.05 in 10.0 mi South 5.8 mph - N/A   Overcast
5:55 PM 60.8 °F - 56.3 °F 85% 30.05 in 7.0 mi SSE 3.5 mph - N/A Rain Rain
6:15 PM 59.9 °F - 56.3 °F 88% 30.04 in 10.0 mi ESE 3.5 mph - N/A   Mostly Cloudy
6:35 PM 59.9 °F - 56.7 °F 89% 30.04 in 10.0 mi Calm Calm - N/A   Overcast
6:55 PM 59.9 °F - 57.6 °F 92% 30.04 in 10.0 mi Calm Calm - N/A   Overcast
7:15 PM 59.7 °F - 57.7 °F 93% 30.04 in 10.0 mi Calm Calm - N/A   Overcast
7:35 PM 59.4 °F - 57.7 °F 94% 30.05 in 10.0 mi Calm Calm - N/A   Overcast
7:55 PM 59.5 °F - 58.1 °F 95% 30.05 in 10.0 mi Calm Calm - N/A   Overcast
8:15 PM 59.7 °F - 58.1 °F 94% 30.06 in 7.0 mi Calm Calm - N/A   Overcast
8:35 PM 59.5 °F - 57.9 °F 94% 30.05 in 10.0 mi Calm Calm - N/A   Overcast
8:55 PM 59.4 °F - 57.7 °F 94% 30.05 in 10.0 mi Calm Calm - N/A   Overcast
9:15 PM 59.0 °F - 56.8 °F 93% 30.05 in 10.0 mi Calm Calm - N/A   Overcast
9:35 PM 59.0 °F - 56.3 °F 91% 30.06 in 10.0 mi SE 4.6 mph - N/A   Overcast
9:55 PM 58.6 °F - 55.9 °F 91% 30.06 in 10.0 mi Calm Calm - N/A   Overcast
10:15 PM 58.5 °F - 55.9 °F 91% 30.06 in 10.0 mi Calm Calm - N/A   Overcast
10:35 PM 58.5 °F - 55.8 °F 91% 30.07 in 10.0 mi Calm Calm - N/A   Overcast
10:55 PM 58.3 °F - 55.9 °F 92% 30.07 in 10.0 mi Calm Calm - N/A   Overcast
11:15 PM 58.1 °F - 55.9 °F 93% 30.07 in 10.0 mi Calm Calm - N/A   Overcast
11:35 PM 58.1 °F - 56.1 °F 93% 30.09 in 10.0 mi NW 5.8 mph - N/A   Overcast
11:55 PM 58.1 °F - 56.3 °F 94% 30.08 in 10.0 mi Calm Calm - N/A Rain Rain